1496764800.19,18316,18.94,73646.3,8.03,5.55,4.49,0,*77
1496764801.44,18317,18.94,73648.5,8.03,5.73,4.59,0,*73
1496764802.62,18318,18.94,73648.3,8.05,5.63,4.49,0,*7A
1496764803.8,18319,18.94,73648.3,8.05,5.63,4.41,0,*73
1496764804.98,18320,18.94,73658.0,8.05,5.67,4.37,0,*7C
1496764806.15,18321,18.94,73658.8,8.05,5.33,4.23,0,*79
1496764807.35,18322,18.94,73652.0,8.05,5.11,4.01,0,*7A
1496764808.55,18323,18.94,73650.5,8.09,5.01,3.85,0,*7D
1496764809.8,18324,19.0,73660.3,8.07,5.01,3.97,0,*77
1496764811.04,18325,18.94,73660.8,8.07,4.97,3.97,0,*78
1496764812.26,18326,18.94,73668.8,8.09,5.27,4.59,0,*7A
1496764813.46,18327,18.94,73666.3,8.09,4.93,4.23,0,*78
1496764814.69,18328,18.94,73654.0,8.07,4.79,4.07,0,*7B
1496764815.89,18329,18.94,73654.8,8.09,5.05,4.45,0,*78
1496764817.14,18330,18.94,73656.0,8.07,4.79,3.97,0,*7C
1496764818.34,18331,18.94,73652.3,8.09,4.67,3.85,0,*7F
1496764819.54,18332,18.94,73648.0,8.09,4.57,3.75,0,*70
1496764820.71,18333,18.94,73656.3,8.09,4.81,4.11,0,*7F
1496764821.89,18334,18.94,73660.8,8.09,5.11,4.45,0,*71
1496764823.14,18335,18.94,73652.0,8.11,4.79,3.97,0,*7E
1496764824.37,18336,18.94,73654.8,8.09,4.71,3.97,0,*7C
1496764825.6,18337,18.94,73648.5,8.11,5.01,4.45,0,*7A
1496764826.83,18338,18.94,73656.0,8.11,4.93,4.45,0,*7F
1496764828.03,18339,18.94,73654.5,8.11,4.89,4.23,0,*75
1496764829.23,18340,18.94,73658.5,8.09,5.05,4.49,0,*7B
1496764830.44,18341,18.94,73658.0,8.09,5.19,4.71,0,*7C
1496764831.63,18342,18.94,73658.8,8.11,5.29,4.81,0,*7A
1496764832.82,18343,18.94,73654.0,8.15,5.15,4.59,0,*75
1496764834.05,18344,18.94,73656.0,8.11,4.81,4.31,0,*74
1496764835.27,18345,18.94,73656.8,8.11,4.79,4.11,0,*70
1496764836.53,18346,18.94,73650.8,8.11,4.93,4.31,0,*75
1496764837.75,18347,19.0,73660.5,8.11,5.37,4.79,0,*77
1496764838.97,18348,18.94,73658.5,8.15,5.27,4.59,0,*7F
1496764840.17,18349,18.94,73656.0,8.15,5.05,4.37,0,*76
1496764841.37,18350,18.94,73652.3,8.15,4.97,4.33,0,*70
1496764842.57,18351,18.94,73654.0,8.15,4.97,4.49,0,*7C
1496764843.77,18352,18.94,73652.3,8.11,5.37,4.81,0,*74
1496764844.97,18353,18.94,73652.3,8.15,4.97,4.45,0,*72
1496764846.14,18354,18.94,73654.8,8.15,4.85,4.37,0,*73
1496764847.37,18355,18.94,73652.0,8.11,4.79,4.23,0,*70
1496764848.56,18356,18.94,73650.3,8.15,5.05,4.49,0,*71
1496764849.73,18357,18.94,73648.0,8.15,5.29,4.81,0,*7A
1496764850.93,18358,18.94,73646.8,8.15,5.05,4.45,0,*73
1496764852.15,18359,18.94,73640.8,8.11,4.93,4.49,0,*74
1496764853.39,18360,18.94,73642.5,8.11,5.19,4.79,0,*7E
1496764854.61,18361,18.94,73640.3,8.17,5.55,5.33,0,*7E
1496764855.81,18362,18.94,73642.3,8.11,5.41,5.37,0,*7A
1496764857.04,18363,18.94,73642.5,8.17,5.59,5.55,0,*70
1496764858.26,18364,18.94,73642.3,8.17,5.55,5.49,0,*76
1496764859.46,18365,18.94,73642.3,8.17,5.59,5.49,0,*7B
1496764860.66,18366,18.94,73642.0,8.17,5.49,5.37,0,*70
1496764861.86,18367,18.94,73646.3,8.17,5.67,5.45,0,*78
1496764863.06,18368,18.94,73648.0,8.11,5.71,5.37,0,*73
1496764864.26,18369,18.94,73644.5,8.15,6.03,5.73,0,*70
1496764865.52,18370,18.94,73648.5,8.17,6.13,5.89,0,*7E
1496764866.73,18371,19.0,73648.3,8.17,5.99,5.59,0,*73
1496764867.95,18372,18.94,73646.8,8.17,5.81,5.37,0,*71
1496764869.18,18373,18.94,73642.5,8.17,5.89,5.45,0,*7D
1496764870.37,18374,18.94,73644.3,8.19,5.71,5.19,0,*7A
1496764871.62,18375,18.94,73642.3,8.17,5.55,4.97,0,*74
1496764872.83,18376,18.94,73642.8,8.17,5.71,5.23,0,*7F
1496764874.06,18377,18.94,73642.5,8.17,5.55,5.19,0,*71
1496764875.26,18378,18.94,73640.8,8.17,5.67,5.37,0,*73
1496764876.5,18379,18.94,73642.5,8.17,5.81,5.67,0,*7F
1496764877.7,18380,18.94,73646.5,8.19,5.77,5.67,0,*7E
1496764878.91,18381,18.94,73644.0,8.19,5.93,5.67,0,*75
1496764880.12,18382,18.94,73640.0,8.19,5.93,5.71,0,*71
1496764881.33,18383,18.94,73644.3,8.19,5.71,5.55,0,*7A
1496764882.5,18384,18.94,73642.8,8.19,5.67,5.45,0,*7B
1496764883.71,18385,18.94,73642.0,8.19,5.71,5.55,0,*7C
1496764884.93,18386,19.0,73644.8,8.21,5.51,5.37,0,*72
1496764886.1,18387,18.94,73644.5,8.19,5.49,5.37,0,*71
1496764887.3,18388,18.94,73644.3,8.21,5.71,5.41,0,*7F
1496764888.49,18389,18.94,73644.8,8.21,5.71,5.37,0,*7F
1496764889.67,18390,18.94,73644.5,8.19,5.49,5.11,0,*73
1496764890.85,18391,18.94,73646.3,8.23,5.59,5.23,0,*7B
1496764892.03,18392,18.94,73648.5,8.19,5.71,5.45,0,*7B
1496764893.23,18393,18.94,73644.5,8.19,5.77,5.49,0,*70
1496764894.46,18394,18.94,73648.3,8.19,5.89,5.55,0,*7B
1496764895.68,18395,18.94,73648.8,8.21,5.81,5.49,0,*74
1496764896.88,18396,18.94,73644.8,8.23,5.51,5.23,0,*74
1496764898.06,18397,18.94,73644.0,8.23,5.59,5.37,0,*78
1496764899.26,18398,18.94,73646.3,8.23,5.41,4.93,0,*71
1496764900.45,18399,18.94,73646.0,8.23,5.29,4.93,0,*7E
1496764901.65,18400,18.94,73646.5,8.23,5.37,5.01,0,*7C
1496764902.83,18401,18.94,73646.5,8.23,5.49,5.11,0,*75
1496764904.08,18402,18.94,73644.8,8.25,5.51,5.27,0,*7C
1496764905.3,18403,18.94,73642.5,8.23,5.05,4.79,0,*70
1496764906.53,18404,18.94,73642.5,8.23,5.01,4.79,0,*73
1496764907.76,18405,18.94,73642.3,8.21,5.15,4.93,0,*71
1496764908.95,18406,18.94,73640.8,8.23,5.37,5.27,0,*7E
1496764910.15,18407,18.94,73642.0,8.23,4.93,4.81,0,*7D
1496764911.34,18408,18.94,73640.8,8.21,4.89,4.81,0,*7B
1496764912.54,18409,18.94,73644.8,8.21,4.89,4.81,0,*7A
1496764913.8,18410,18.94,73644.5,8.21,4.79,4.71,0,*72
1496764915.03,18411,18.94,73644.3,8.21,4.81,4.71,0,*74
1496764916.25,18412,19.0,73644.8,8.21,5.01,4.81,0,*71
1496764917.48,18413,18.94,73644.3,8.21,4.93,4.89,0,*72
1496764918.7,18414,18.94,73646.3,8.21,5.05,4.89,0,*7B
1496764919.9,18415,18.94,73638.5,8.19,4.19,4.05,0,*79
1496764921.13,18416,19.0,73640.5,8.17,4.67,4.53,0,*7E
1496764922.37,18417,18.94,73640.0,8.19,4.97,4.75,0,*7A
1496764923.55,18418,18.94,73640.0,8.19,5.49,5.19,0,*7C
1496764924.73,18419,18.94,73640.8,8.19,5.59,5.49,0,*79
1496764925.96,18420,18.94,73642.0,8.19,5.89,5.81,0,*7A
1496764927.14,18421,18.94,73634.8,8.19,6.07,5.99,0,*77
1496764928.33,18422,18.94,73638.8,8.19,5.99,6.03,0,*70
1496764929.53,18423,18.94,73640.3,8.17,5.49,5.49,0,*7F
1496764930.7,18424,18.94,73640.0,8.19,5.37,5.49,0,*7F
1496764931.92,18425,19.0,73644.0,8.17,5.27,5.37,0,*78
1496764933.12,18426,18.94,73644.3,8.19,5.55,5.67,0,*75
1496764934.32,18427,18.94,73640.8,8.23,5.51,5.63,0,*7D
1496764935.51,18428,18.94,73642.3,8.19,5.27,5.37,0,*7B
1496764936.72,18429,18.94,73640.5,8.17,5.49,5.67,0,*79
1496764937.9,18430,18.94,73644.0,8.19,5.49,5.67,0,*7F
1496764939.1,18431,18.94,73642.0,8.17,5.49,5.67,0,*70
1496764940.3,18432,18.94,73642.5,8.17,5.45,5.59,0,*72
1496764941.5,18433,18.94,73640.0,8.17,5.45,5.59,0,*73
1496764942.7,18434,18.94,73642.0,8.19,5.71,5.89,0,*70
1496764943.93,18435,18.94,73646.5,8.17,5.81,5.99,0,*71
1496764945.17,18436,18.94,73644.8,8.17,5.89,5.99,0,*7A
1496764946.39,18437,18.94,73648.3,8.19,5.77,5.89,0,*75
1496764947.64,18438,18.94,73644.8,8.21,5.73,5.93,0,*7E
1496764948.84,18439,18.94,73646.8,8.19,5.67,5.77,0,*7B
1496764950.04,18440,18.94,73644.0,8.19,5.71,5.81,0,*7B
1496764951.24,18441,18.94,73644.8,8.19,5.59,5.81,0,*70
1496764952.49,18442,18.94,73642.8,8.21,5.81,5.93,0,*7E
1496764953.71,18443,18.94,73644.3,8.21,5.85,5.95,0,*7D
1496764954.91,18444,18.94,73646.0,8.23,5.85,5.95,0,*78
1496764956.11,18445,18.94,73646.8,8.21,5.59,5.63,0,*73
1496764957.32,18446,18.94,73648.0,8.23,5.51,5.73,0,*7B
1496764958.54,18447,18.94,73644.8,8.21,5.59,5.81,0,*7D
1496764959.74,18448,18.94,73644.8,8.23,5.59,5.81,0,*70
1496764960.93,18449,18.94,73646.5,8.23,5.71,5.93,0,*78
1496764962.16,18450,18.94,73644.8,8.21,5.73,5.95,0,*76
1496764963.38,18451,18.94,73646.8,8.21,5.81,5.95,0,*7A
1496764964.61,18452,18.94,73646.5,8.21,5.93,6.07,0,*72
1496764965.81,18453,18.94,73646.3,8.23,5.93,6.11,0,*76
1496764967.04,18454,18.94,73640.8,8.21,6.03,6.17,0,*7F
1496764968.21,18455,18.94,73646.0,8.23,6.11,6.21,0,*7A
1496764969.38,18456,18.94,73642.0,8.23,6.11,6.29,0,*71
1496764970.59,18457,18.94,73644.0,8.25,5.99,6.11,0,*7E
1496764971.83,18458,18.94,73644.3,8.25,5.77,5.85,0,*7F
1496764973.07,18459,18.94,73646.3,8.25,5.77,5.89,0,*72
1496764974.31,18460,18.94,73648.5,8.25,5.73,5.77,0,*7D
1496764975.53,18461,18.94,73644.8,8.25,5.51,5.63,0,*79
1496764976.7,18462,19.0,73650.3,8.23,5.37,5.41,0,*7C
1496764977.92,18463,18.94,73646.8,8.23,5.51,5.51,0,*7C
1496764979.09,18464,18.94,73648.0,8.23,5.49,5.49,0,*7B
1496764980.29,18465,18.94,73646.8,8.23,4.59,4.57,0,*74
1496764981.46,18466,18.94,73642.0,8.23,4.45,4.45,0,*79
1496764982.69,18467,18.94,73646.3,8.21,4.81,4.79,0,*7D
1496764983.94,18468,18.94,73646.3,8.21,5.01,4.93,0,*7F
1496764985.17,18469,18.94,73646.8,8.21,4.93,4.89,0,*7F
1496764986.37,18470,18.94,73646.8,8.21,5.15,5.11,0,*78
1496764987.58,18471,18.94,73640.5,8.17,5.19,5.07,0,*77
1496764988.8,18472,18.94,73640.3,8.17,5.19,5.07,0,*74
1496764990.01,18473,18.94,73642.5,8.17,5.23,5.11,0,*7B
1496764991.19,18474,18.94,73640.3,8.15,5.23,5.19,0,*76
1496764992.41,18475,18.94,73646.3,8.11,5.27,5.11,0,*7F
1496764993.58,18476,18.94,73646.5,8.15,5.29,5.29,0,*7D
1496764994.77,18477,19.0,73646.3,8.11,4.89,4.89,0,*78
1496764995.97,18478,18.94,73642.8,8.11,5.37,5.41,0,*76
1496764997.14,18479,18.94,73644.8,8.15,5.45,5.45,0,*72
1496764998.33,18480,19.0,73648.0,8.11,5.41,5.37,0,*71
1496764999.53,18481,18.94,73644.0,8.11,5.37,5.37,0,*71
1496765000.75,18482,18.94,73640.3,8.11,5.63,5.73,0,*73
1496765002.01,18483,18.94,73644.0,8.11,5.93,5.85,0,*74
1496765003.26,18484,18.94,73642.5,8.11,5.85,5.93,0,*73
1496765004.49,18485,18.94,73640.5,8.09,5.93,5.81,0,*7F
1496765005.69,18486,18.94,73644.3,8.11,5.71,5.71,0,*76
1496765006.94,18487,18.94,73640.8,8.11,5.85,5.81,0,*73
1496765008.17,18488,18.94,73642.3,8.11,5.95,5.93,0,*7E
1496765009.42,18489,18.94,73642.3,8.11,5.85,5.81,0,*7D
1496765010.67,18490,18.94,73640.0,8.11,5.85,5.85,0,*71
1496765011.92,18491,18.94,73646.0,8.11,5.93,5.93,0,*70
1496765013.17,18492,19.0,73648.0,8.11,5.85,5.85,0,*73
1496765014.37,18493,18.94,73644.3,8.11,5.59,5.63,0,*7B
1496765015.6,18494,18.94,73640.3,8.11,5.59,5.51,0,*7D
1496765016.78,18495,18.94,73642.0,8.09,5.63,5.63,0,*7D
1496765018.02,18496,18.94,73646.0,8.11,5.85,5.85,0,*77
1496765019.21,18497,18.94,73646.0,8.09,5.99,5.95,0,*73
1496765020.41,18498,18.94,73646.5,8.11,5.95,5.99,0,*75
1496765021.66,18499,18.94,73640.8,8.07,5.93,5.93,0,*7F
1496765022.89,18500,18.94,73644.8,8.09,5.81,5.81,0,*70
1496765024.11,18501,18.94,73642.5,8.09,5.55,5.55,0,*71
1496765025.31,18502,19.0,73646.8,8.07,5.59,5.67,0,*71
1496765026.49,18503,18.94,73644.5,8.09,5.71,5.71,0,*73
1496765027.72,18504,18.94,73646.3,8.09,5.81,5.81,0,*74
1496765028.91,18505,18.94,73646.5,8.07,5.45,5.45,0,*7B
1496765030.08,18506,18.94,73642.5,8.09,5.37,5.41,0,*77
1496765031.28,18507,18.94,73644.5,8.07,5.71,5.71,0,*79
1496765032.47,18508,18.94,73642.0,8.07,5.71,5.71,0,*76
1496765033.7,18509,18.94,73646.0,8.07,5.55,5.59,0,*7B
1496765034.94,18510,18.94,73646.5,8.07,5.55,5.55,0,*7F
1496765036.14,18511,18.94,73646.8,8.05,5.63,5.55,0,*79
1496765037.36,18512,18.94,73644.5,8.05,5.55,5.55,0,*7F
1496765038.53,18513,18.94,73640.3,8.05,5.63,5.63,0,*7E
1496765039.71,18514,19.0,73648.8,8.05,5.63,5.63,0,*79
1496765040.91,18515,18.94,73644.0,8.05,5.63,5.55,0,*7D
1496765042.16,18516,18.94,73646.3,8.03,5.73,5.73,0,*7D
1496765043.37,18517,18.94,73648.8,8.05,5.93,6.03,0,*70
1496765044.6,18518,18.94,73646.5,8.05,5.93,5.93,0,*75
1496765045.83,18519,18.94,73642.8,8.03,5.93,6.03,0,*78
1496765047.05,18520,18.94,73646.0,8.03,6.03,6.03,0,*78
1496765048.27,18521,18.94,73646.5,8.03,6.03,5.99,0,*79
1496765049.51,18522,18.94,73646.5,8.03,5.77,5.73,0,*7E
1496765050.71,18523,18.94,73646.0,8.05,5.99,5.93,0,*77
1496765051.95,18524,18.94,73648.5,8.03,6.13,6.11,0,*7E
1496765053.14,18525,18.94,73648.5,8.05,6.11,6.13,0,*79
1496765054.35,18526,18.94,73644.0,8.03,6.11,6.11,0,*7E
1496765055.57,18527,18.94,73644.8,8.03,6.03,6.03,0,*7F
1496765056.77,18528,18.94,73646.0,8.03,5.63,5.63,0,*70
1496765057.98,18529,18.94,73646.5,8.03,5.33,5.33,0,*71
1496765059.18,18530,18.94,73636.8,8.03,5.33,5.33,0,*79
1496765060.36,18531,18.94,73642.3,8.01,5.29,5.29,0,*7A
1496765061.58,18532,18.94,73642.3,7.99,5.59,5.55,0,*7B
1496765062.79,18533,18.94,73644.5,7.99,5.67,5.59,0,*7B
1496765063.99,18534,18.94,73642.0,7.99,5.71,5.71,0,*71
1496765065.21,18535,18.94,73640.0,7.97,5.77,5.81,0,*77
1496765066.41,18536,18.94,73642.3,8.01,5.71,5.73,0,*7F
1496765067.63,18537,18.94,73642.3,7.99,5.27,5.37,0,*73
1496765068.83,18538,18.94,73640.3,7.97,5.45,5.55,0,*72
1496765070.03,18539,18.94,73638.8,7.95,4.85,4.81,0,*74
1496765071.24,18540,18.94,73640.8,7.95,5.07,5.19,0,*71
1496765072.47,18541,18.94,73638.5,7.95,4.85,4.93,0,*78
1496765073.68,18542,18.94,73638.0,7.95,5.11,5.19,0,*74
1496765074.9,18543,18.94,73632.5,7.95,5.45,5.51,0,*78
1496765076.08,18544,18.94,73634.8,7.93,5.41,5.41,0,*7C
1496765077.29,18545,18.94,73634.5,7.93,5.41,5.51,0,*7C
1496765078.47,18546,18.94,73636.8,7.89,5.49,5.59,0,*74
1496765079.67,18547,18.94,73638.5,7.89,5.49,5.51,0,*7D
1496765080.85,18548,18.94,73632.0,7.93,5.45,5.45,0,*70
1496765082.02,18549,18.94,73636.0,7.93,5.41,5.45,0,*75
1496765083.2,18550,19.0,73632.0,7.89,5.41,5.49,0,*7A
1496765084.41,18551,18.94,73634.3,7.89,5.41,5.51,0,*72
1496765085.58,18552,18.94,73628.5,7.89,5.49,5.49,0,*70
1496765086.76,18553,18.94,73634.3,7.89,5.29,5.37,0,*7E
1496765087.96,18554,18.94,73634.5,7.87,5.37,5.37,0,*78
1496765089.17,18555,18.94,73634.3,7.87,5.33,5.37,0,*7D
1496765090.38,18556,18.94,73628.5,7.87,4.45,4.53,0,*7D
1496765091.58,18557,18.94,73628.3,7.83,4.11,4.15,0,*7B
1496765092.78,18558,18.94,73630.8,7.83,4.11,4.15,0,*74
1496765093.99,18559,18.94,73634.8,7.83,4.41,4.41,0,*71
1496765095.25,18560,18.94,73628.3,7.83,4.59,4.71,0,*71
1496765096.46,18561,18.94,73630.8,7.81,4.89,4.97,0,*77
1496765097.65,18562,18.94,73634.3,7.81,5.07,5.07,0,*7B
1496765098.82,18563,18.94,73628.8,7.81,5.29,5.29,0,*7A
1496765100.06,18564,19.0,73632.5,7.81,5.01,5.01,0,*7D
1496765101.3,18565,18.94,73636.5,7.83,4.89,5.01,0,*7F
1496765102.48,18566,19.0,73636.5,7.81,5.07,5.11,0,*78
1496765103.69,18567,18.94,73638.5,7.79,5.19,5.27,0,*74
1496765104.89,18568,18.94,73636.5,7.79,4.85,4.71,0,*7D
1496765106.1,18569,19.0,73636.8,7.81,5.01,4.85,0,*7D
1496765107.32,18570,19.0,73634.0,7.79,5.27,5.27,0,*7F
1496765108.49,18571,18.94,73630.3,7.79,5.29,5.19,0,*7D
1496765109.69,18572,18.94,73634.3,7.79,5.07,5.05,0,*7F
1496765110.87,18573,19.0,73636.8,7.79,5.07,5.07,0,*7C
1496765112.07,18574,18.94,73638.0,7.79,5.37,5.27,0,*7A
1496765113.28,18575,18.94,73630.3,7.77,5.11,5.11,0,*74
1496765114.45,18576,18.94,73638.0,7.79,5.41,5.37,0,*78
1496765115.62,18577,18.94,73632.8,7.79,5.49,5.49,0,*78
1496765116.79,18578,18.94,73634.3,7.79,5.49,5.49,0,*77
1496765117.97,18579,19.0,73638.0,7.81,5.33,5.29,0,*7A
1496765119.16,18580,18.94,73638.8,7.79,5.27,5.29,0,*7E
1496765120.35,18581,18.94,73642.3,7.79,5.27,5.29,0,*7F
1496765121.53,18582,18.94,73644.3,7.79,5.19,5.37,0,*7E
1496765122.77,18583,18.94,73638.0,7.81,4.71,4.71,0,*74
1496765124.0,18584,18.94,73636.3,7.79,4.79,4.93,0,*70
1496765125.23,18585,18.94,73642.5,7.79,5.05,5.27,0,*75
1496765126.45,18586,18.94,73640.5,7.79,5.05,5.27,0,*76
1496765127.63,18587,18.94,73640.0,7.81,5.11,5.37,0,*74
1496765128.82,18588,18.94,73642.0,7.81,4.85,5.11,0,*73
1496765130.03,18589,18.94,73638.3,7.81,5.01,5.29,0,*74
1496765131.24,18590,18.94,73642.3,7.83,4.89,5.23,0,*75
1496765132.43,18591,18.94,73644.8,7.81,4.81,5.11,0,*7F
1496765133.66,18592,18.94,73640.8,7.83,4.63,5.07,0,*75
1496765134.84,18593,18.94,73642.8,7.81,4.53,4.85,0,*7E
1496765136.03,18594,18.94,73640.0,7.81,4.27,4.53,0,*71
1496765137.27,18595,19.0,73642.5,7.83,4.37,4.63,0,*70
1496765138.47,18596,18.94,73638.8,7.81,4.49,4.75,0,*7F
1496765139.69,18597,18.94,73638.3,7.81,4.37,4.71,0,*73
1496765140.87,18598,18.94,73634.0,7.81,4.41,4.81,0,*72
1496765142.11,18599,18.94,73634.3,7.81,4.31,4.71,0,*7B
1496765143.35,18600,18.94,73634.0,7.81,4.31,4.71,0,*78
1496765144.56,18601,18.94,73628.8,7.83,4.41,4.85,0,*77
1496765145.81,18602,18.94,73628.3,7.83,4.31,4.63,0,*7B
1496765147.04,18603,18.94,73626.0,7.83,4.01,4.37,0,*78
1496765148.25,18604,18.94,73628.0,7.83,4.15,4.41,0,*7B
1496765149.51,18605,18.94,73624.5,7.83,3.67,4.05,0,*78
1496765150.72,18606,18.94,73630.0,7.81,3.41,3.81,0,*76
1496765151.93,18607,19.0,73628.5,7.81,3.33,3.81,0,*72
1496765153.16,18608,18.94,73626.8,7.81,3.41,3.79,0,*7F
1496765154.37,18609,19.0,73628.8,7.81,3.59,4.01,0,*7F
1496765155.6,18610,18.94,73624.3,7.77,3.71,4.07,0,*72
1496765156.78,18611,18.94,73628.3,7.79,4.15,4.57,0,*7D
1496765157.95,18612,18.94,73632.5,7.79,3.85,4.07,0,*75
1496765159.13,18613,19.0,73640.3,7.79,3.85,4.23,0,*72
1496765160.39,18614,18.94,73638.3,7.77,3.11,3.49,0,*7D
1496765161.62,18615,18.94,73640.0,7.79,3.07,3.53,0,*7E
1496765162.84,18616,18.94,73638.5,7.77,3.33,3.81,0,*7B
1496765164.1,18617,19.0,73640.5,7.77,3.11,3.71,0,*75
1496765165.33,18618,18.94,73636.3,7.77,3.37,3.93,0,*72
1496765166.59,18619,19.0,73632.0,7.77,3.41,3.97,0,*76
1496765167.81,18620,18.94,73632.3,7.73,3.67,4.27,0,*70
1496765169.06,18621,18.94,73630.0,7.73,3.33,4.05,0,*70
1496765170.29,18622,18.94,73632.0,7.75,3.03,3.71,0,*72
1496765171.49,18623,18.94,73634.0,7.75,2.99,3.71,0,*71
1496765172.68,18624,18.94,73632.3,7.75,3.25,3.97,0,*78
1496765173.88,18625,18.94,73634.8,7.75,3.25,3.97,0,*79
1496765175.11,18626,18.94,73636.0,7.73,3.59,4.31,0,*7C
1496765176.34,18627,18.94,73632.8,7.73,3.71,4.37,0,*71
1496765177.56,18628,18.94,73634.5,7.73,3.33,3.93,0,*71
1496765178.75,18629,18.94,73640.3,7.73,3.59,4.27,0,*74
1496765180.0,18630,18.94,73636.3,7.73,3.79,4.31,0,*79
1496765181.26,18631,18.94,73638.8,7.73,3.71,4.31,0,*70
1496765182.49,18632,18.94,73638.8,7.73,3.71,4.37,0,*75
1496765183.67,18633,19.0,73642.0,7.75,4.07,4.45,0,*71
1496765184.92,18634,18.94,73640.0,7.73,4.31,4.59,0,*78
1496765186.18,18635,18.94,73636.0,7.73,4.71,4.97,0,*7F
1496765187.4,18636,19.0,73638.8,7.73,4.85,4.97,0,*77
1496765188.58,18637,18.94,73636.3,7.75,5.07,5.11,0,*74
1496765189.76,18638,18.94,73642.3,7.75,5.19,5.07,0,*73
1496765190.97,18639,18.94,73636.0,7.73,5.33,5.23,0,*7A
1496765192.16,18640,18.94,73642.8,7.75,5.45,5.51,0,*76
1496765193.33,18641,18.94,73642.0,7.75,5.49,5.49,0,*72
1496765194.52,18642,18.94,73640.8,7.73,5.29,5.29,0,*77
1496765195.71,18643,18.94,73640.8,7.75,5.27,5.37,0,*71
1496765196.91,18644,19.0,73644.8,7.75,5.55,5.59,0,*7B
1496765198.08,18645,18.94,73640.3,7.75,5.37,5.49,0,*7F
1496765199.3,18646,18.94,73636.5,7.73,5.41,5.51,0,*72
1496765200.5,18647,18.94,73640.5,7.73,5.45,5.59,0,*7F
1496765201.72,18648,18.94,73646.0,7.73,5.41,5.55,0,*78
1496765202.95,18649,18.94,73642.0,7.75,5.05,5.27,0,*7A
1496765204.16,18650,18.94,73640.3,7.73,5.29,5.51,0,*7B
1496765205.36,18651,18.94,73638.5,7.73,5.41,5.59,0,*7C
1496765206.56,18652,18.94,73640.0,7.73,5.67,5.71,0,*71
1496765207.78,18653,18.94,73640.5,7.73,5.55,5.71,0,*71
1496765208.98,18654,18.94,73644.5,7.73,5.71,5.95,0,*7A
1496765210.16,18655,19.0,73644.5,7.75,5.71,5.99,0,*71
1496765211.38,18656,18.94,73642.8,7.77,5.73,6.07,0,*76
1496765212.58,18657,18.94,73642.0,7.75,5.59,5.85,0,*74
1496765213.74,18658,18.94,73640.5,7.75,5.45,5.63,0,*7E
1496765214.96,18659,18.94,73638.0,7.73,5.29,5.51,0,*72
1496765216.16,18660,18.94,73642.3,7.75,5.63,5.73,0,*70
1496765217.35,18661,18.94,73636.8,7.75,5.71,5.81,0,*7F
1496765218.55,18662,18.94,73638.3,7.75,5.71,5.81,0,*7C
1496765219.74,18663,18.94,73640.8,7.75,5.59,5.73,0,*7A
1496765220.96,18664,18.94,73642.8,7.73,5.59,5.73,0,*7B
1496765222.16,18665,18.94,73642.5,7.75,5.63,5.73,0,*75
1496765223.37,18666,18.94,73638.5,7.73,5.59,5.77,0,*7D
1496765224.57,18667,18.94,73636.3,7.75,5.59,5.73,0,*7E
1496765225.79,18668,18.94,73632.8,7.77,5.71,5.81,0,*74
1496765226.97,18669,19.0,73640.8,7.75,5.49,5.59,0,*79
1496765228.19,18670,18.94,73640.3,7.75,5.73,5.85,0,*79
1496765229.41,18671,18.94,73640.0,7.75,5.73,5.85,0,*78
1496765230.65,18672,18.94,73634.5,7.73,5.77,5.89,0,*75
1496765231.88,18673,18.94,73636.5,7.73,5.89,5.99,0,*74
1496765233.14,18674,18.94,73642.8,7.77,5.81,5.81,0,*76
1496765234.33,18675,18.94,73640.8,7.75,5.85,6.07,0,*7C
1496765235.53,18676,18.94,73640.3,7.75,5.95,6.13,0,*7B
1496765236.76,18677,18.94,73642.3,7.73,5.89,6.03,0,*70
1496765237.99,18678,18.94,73636.8,7.73,5.93,6.11,0,*77
1496765239.19,18679,18.94,73636.5,7.75,6.03,6.17,0,*7C
1496765240.37,18680,18.94,73640.5,7.75,5.95,6.07,0,*77
1496765241.55,18681,18.94,73640.5,7.75,6.03,6.25,0,*7A
1496765242.75,18682,18.94,73644.3,7.75,6.13,6.25,0,*78
1496765243.95,18683,18.94,73640.3,7.75,6.07,6.17,0,*7D
1496765245.14,18684,18.94,73644.3,7.75,5.95,6.13,0,*76
1496765246.34,18685,18.94,73644.3,7.75,6.07,6.13,0,*7F
1496765247.54,18686,18.94,73644.5,7.75,6.13,6.25,0,*7C
1496765248.72,18687,18.94,73646.0,7.75,6.03,6.07,0,*7C
1496765249.92,18688,18.94,73640.0,7.75,6.03,6.13,0,*76
1496765251.12,18689,18.94,73640.0,7.75,6.17,6.33,0,*70
1496765252.32,18690,18.94,73646.5,7.75,6.17,6.29,0,*73
1496765253.5,18691,18.94,73642.3,7.75,6.25,6.29,0,*73
1496765254.7,18692,18.94,73640.0,7.73,6.11,6.25,0,*7D
1496765255.9,18693,18.94,73642.8,7.75,6.17,6.25,0,*7C
1496765257.1,18694,18.94,73642.3,7.75,6.33,6.39,0,*70
1496765258.3,18695,18.94,73642.8,7.75,6.33,6.39,0,*71
1496765259.51,18696,18.94,73640.5,7.75,6.25,6.35,0,*79
1496765260.72,18697,18.94,73642.3,7.75,6.39,6.33,0,*73
1496765261.92,18698,18.94,73644.3,7.73,6.21,6.29,0,*78
1496765263.12,18699,18.94,73644.0,7.73,6.11,6.21,0,*72
1496765264.3,18700,18.94,73642.5,7.75,6.25,6.33,0,*71
1496765265.51,18701,18.94,73646.5,7.73,6.25,6.29,0,*7D
1496765266.68,18702,18.94,73650.3,7.75,6.25,6.29,0,*78
1496765267.86,18703,18.94,73646.0,7.75,6.25,6.29,0,*79
1496765269.07,18704,18.94,73646.0,7.75,6.39,6.33,0,*78
1496765270.29,18705,18.94,73642.5,7.73,6.13,6.21,0,*74
1496765271.51,18706,18.94,73646.3,7.73,6.11,6.13,0,*74
1496765272.76,18707,18.94,73648.0,7.73,5.89,5.89,0,*77
1496765273.99,18708,18.94,73648.8,7.73,5.89,5.99,0,*79
1496765275.22,18709,18.94,73644.5,7.73,5.93,5.99,0,*73
1496765276.46,18710,18.94,73648.5,7.73,5.77,5.77,0,*71
1496765277.66,18711,18.94,73646.3,7.67,5.85,5.99,0,*78
1496765278.87,18712,18.94,73648.0,7.73,5.99,6.03,0,*73
1496765280.05,18713,18.94,73644.8,7.71,5.99,5.99,0,*70
1496765281.23,18714,18.94,73644.5,7.71,5.99,5.95,0,*7B
1496765282.43,18715,18.94,73642.8,7.71,5.89,5.99,0,*77
1496765283.63,18716,18.94,73638.8,7.71,5.99,6.13,0,*74
1496765284.83,18717,18.94,73640.8,7.71,5.71,5.77,0,*72
1496765286.05,18718,18.94,73640.3,7.67,5.85,5.85,0,*7C
1496765287.28,18719,18.94,73638.5,7.67,5.89,5.89,0,*7D
1496765288.5,18720,18.94,73638.8,7.71,5.73,5.89,0,*75
1496765289.69,18721,18.94,73640.8,7.67,5.67,5.77,0,*77
1496765290.92,18722,18.94,73640.0,7.65,5.85,5.95,0,*76
1496765292.16,18723,18.94,73644.0,7.65,5.93,6.03,0,*7C
1496765293.38,18724,18.94,73648.0,7.65,5.85,5.95,0,*70
1496765294.61,18725,18.94,73650.0,7.65,5.81,5.95,0,*75
1496765295.82,18726,18.94,73648.5,7.65,5.95,6.03,0,*7F
1496765297.02,18727,18.94,73644.8,7.65,5.95,6.03,0,*7E
1496765298.27,18728,18.94,73650.3,7.65,5.85,5.93,0,*7A
1496765299.52,18729,18.94,73650.3,7.65,5.81,5.93,0,*7F
1496765300.75,18730,18.94,73648.0,7.65,5.85,6.03,0,*79
1496765301.98,18731,18.94,73646.3,7.63,6.13,6.13,0,*73
1496765303.21,18732,18.94,73644.8,7.65,6.13,6.21,0,*77
1496765304.41,18733,18.94,73640.3,7.63,6.17,6.21,0,*74
1496765305.61,18734,18.94,73640.3,7.65,5.95,6.07,0,*78
1496765306.83,18735,18.94,73634.5,7.63,5.73,5.85,0,*7E
1496765308.04,18736,18.94,73636.5,7.63,5.93,5.95,0,*72
1496765309.26,18737,18.94,73638.8,7.63,5.93,5.85,0,*72
1496765310.49,18738,18.94,73634.0,7.63,5.81,5.81,0,*7A
1496765311.69,18739,18.94,73634.8,7.63,5.93,5.95,0,*7D
1496765312.92,18740,18.94,73634.0,7.63,5.81,5.85,0,*71
1496765314.17,18741,18.94,73634.0,7.65,5.81,5.81,0,*72
1496765315.35,18742,18.94,73636.0,7.63,5.63,5.71,0,*74
1496765316.57,18743,18.94,73638.0,7.61,5.49,5.55,0,*79
1496765317.8,18744,18.94,73640.3,7.61,5.45,5.55,0,*72
1496765319.0,18745,18.94,73640.3,7.61,5.41,5.45,0,*76
1496765320.18,18746,18.94,73638.3,7.59,5.33,5.33,0,*7A
1496765321.36,18747,18.94,73642.0,7.59,5.59,5.59,0,*7B
1496765322.54,18748,18.94,73638.3,7.59,5.67,5.67,0,*74
1496765323.72,18749,18.94,73640.0,7.59,5.49,5.59,0,*74
1496765324.89,18750,18.94,73644.5,7.59,5.29,5.45,0,*77
1496765326.1,18751,18.94,73640.0,7.59,4.89,5.01,0,*7D
1496765327.31,18752,18.94,73642.0,7.55,4.89,5.01,0,*72